[[{"header":{"parameterUnit":"m.s-1","parameterCategory":1,"la1":30.2991,"la2":30.254,"lo1":-89.0895,"lo2":-89.0444,"dy":0.0017,"dx":0.0017,"nx":28,"ny":28,"refTime":"2026-02-01T09:00:00:Z","depth":0,"parameterNumber":2,"parameterNumberName":"U-component_of_WINDS"},"data":[0,0,0,0,0,0,0,0,0,0,0,0,0,0,0,0,0,0,0,0,0,0,0,0,0,0,0,0,0,0,0,0,0,0,0,0,0,0,0,0,0,0,0,0,0,0,0,0,0,0,0,0,0,0,0,0,0,0,3.4606,3.4607,0,3.4696,3.4697,3.4698,3.4637,3.4634,3.4631,3.4629,3.4718,3.4723,3.4728,0,0,0,0,0,0,0,0,0,0,0,0,0,3.4377,3.4382,3.4606,3.4607,3.4608,3.4696,3.4697,3.4698,3.4637,3.4634,3.4631,3.4628,3.4717,3.4723,3.4729,0,0,0,0,0,0,0,0,0,0,0,0,0,3.4473,3.4383,3.4606,3.4589,3.4588,3.4696,3.4697,3.4699,3.4638,3.4634,3.463,3.4626,3.4715,3.4722,3.4729,3.4859,0,0,3.4752,3.4755,0,0,0,0,0,0,0,0,3.4468,3.4481,3.459,3.459,3.4589,3.4651,3.4649,3.4752,3.4639,3.4619,3.4629,3.4624,3.4699,3.4708,3.4734,3.4863,3.4867,3.4753,3.4757,3.4761,3.4763,0,0,0,0,0,0,0,3.4461,3.4477,3.4642,3.4592,3.4591,3.4575,3.4584,3.4669,3.4681,3.462,3.4616,3.4628,3.4698,3.4727,3.4735,3.4868,3.4753,3.4759,3.4764,3.4767,3.5103,3.5108,0,0,0,0,0,0,3.4456,3.4472,3.4639,3.4644,3.4517,3.4582,3.4592,3.4636,3.468,3.4683,3.4631,3.4625,3.4716,3.4727,3.4738,3.4889,3.476,3.4767,3.4772,3.5099,3.5104,3.5109,0,0,0,0,0,0,3.4452,3.4472,3.4635,3.4557,3.4577,3.4591,3.464,3.4639,3.4668,3.4688,3.469,3.4658,3.4713,3.4728,3.4828,3.4891,3.4771,3.4778,3.5094,3.5101,3.5107,3.5194,0,0,0,0,0,0,3.4445,3.4471,3.4521,3.4559,3.4581,3.4725,3.4644,3.4644,3.4681,3.4673,3.4714,3.4717,3.4711,3.4818,3.4836,3.4899,3.4783,3.5088,3.5097,3.5105,3.5185,3.5203,3.5218,0,0,0,0,0,3.4438,3.4542,3.4524,3.4544,3.4644,3.4729,3.4742,3.4734,3.4687,3.4736,3.4749,3.4715,3.4882,3.4828,3.4848,3.4915,3.5084,3.5094,3.5104,3.5178,3.5199,3.5217,0,0,0,0,0,0,3.4511,3.4547,3.4527,3.4647,3.4686,3.4719,3.4781,3.4757,3.4809,3.4799,3.4786,3.4796,3.4901,3.4918,3.4858,3.5041,3.4975,3.499,3.5025,3.5045,3.5061,3.5053,3.479,0,0,0,0,0,3.4541,3.4608,3.4636,3.4739,3.4759,3.4767,3.4804,3.4794,3.4833,3.4849,3.4869,3.4907,3.4968,3.5008,3.5065,3.5189,3.5194,3.5244,3.526,3.5273,3.5285,3.5348,3.5369,3.5142,3.5142,3.5142,0,0,3.4604,3.4632,3.4675,3.4754,3.4783,3.485,3.4781,3.4857,3.4906,3.486,3.4955,3.4972,3.5013,3.5125,3.5175,3.5143,3.535,3.5286,3.5297,3.5301,3.5361,3.5382,3.5401,3.5149,3.5148,3.5147,0,0,3.4752,3.4782,3.4869,3.49,3.4944,3.4948,3.4969,3.5006,3.5015,3.5111,3.5077,3.5135,3.5241,3.5271,3.53,3.5458,3.5428,3.5477,3.556,3.5622,3.564,3.5655,3.5708,3.5728,3.549,3.549,3.549,0,3.4824,3.4926,3.4917,3.4995,3.5029,3.4991,3.5078,3.5108,3.5169,3.5192,3.5156,3.5286,3.5311,3.5427,3.5466,3.5492,3.5513,3.5471,3.5638,3.5654,3.5668,3.5718,3.5739,3.5495,3.5495,3.5494,3.5494,0,3.5011,3.5082,3.5147,3.5206,3.5249,3.5331,3.5332,3.5376,3.5363,3.537,3.5467,3.5496,3.5557,3.5585,3.5573,3.5699,3.5677,3.564,3.5573,3.5695,3.5742,3.5762,3.5503,3.5501,3.5499,3.5498,0,0,3.5207,3.5259,3.5283,3.5308,3.5354,3.5408,3.5487,3.5547,3.5583,3.5627,3.569,3.578,3.5745,3.5778,3.5769,3.5824,3.5943,3.578,3.578,3.5806,3.6079,3.6104,3.6127,3.5924,3.5928,3.5931,3.6074,0,3.5354,3.5493,3.5487,3.5616,3.568,3.5645,3.5713,3.5747,3.5757,3.5811,3.582,3.5883,3.5834,3.5853,3.5906,3.5917,3.5997,3.5907,3.5981,3.5983,3.5968,3.6152,3.6179,3.6313,3.6093,3.6096,3.6098,0,3.5546,3.5595,3.573,3.5764,3.579,3.5852,3.5905,3.5959,3.5996,3.5999,3.6035,3.6017,3.6094,3.6028,3.6133,3.6072,3.6102,3.6112,3.6117,3.6121,3.6046,3.6157,3.6356,3.6375,3.6128,3.6126,3.6123,0,3.567,3.5771,3.5864,3.5887,3.593,3.5973,3.5993,3.6027,3.6062,3.6109,3.6131,3.6186,3.6215,3.6257,3.6253,3.6206,3.6359,3.6293,3.636,3.636,3.6391,3.6389,3.6594,3.6417,3.6417,3.6416,3.6416,0,3.5834,3.5917,3.592,3.5977,3.6068,3.606,3.615,3.6165,3.6195,3.6252,3.6226,3.628,3.6273,3.6327,3.6325,3.641,3.6424,3.6427,3.6424,3.6427,3.6426,3.6444,3.6433,3.6421,3.642,3.6419,3.6418,0,3.5987,3.5993,3.6091,3.6124,3.6134,3.6199,3.6226,3.6279,3.6286,3.6359,3.6376,3.6386,3.6448,3.6449,3.652,3.6518,3.6621,3.661,3.6609,3.6605,3.6671,3.6663,3.6892,3.692,3.6728,3.673,3.6731,0,3.609,3.6153,3.6192,3.6229,3.6251,3.6312,3.6348,3.6342,3.638,3.6426,3.6473,3.6533,3.658,3.668,3.6693,3.6746,3.6734,3.6811,3.6742,3.6741,3.6731,3.6726,3.673,3.6823,3.6825,3.6827,3.6828,0,3.627,3.6269,3.6323,3.6377,3.6421,3.6463,3.6502,3.6534,3.6532,3.6576,3.6639,3.6676,3.6748,3.6806,3.6858,3.6876,3.6851,3.685,3.6868,3.687,3.6865,3.6864,3.6641,3.6844,3.6843,3.6842,3.6841,3.684,3.6398,3.6451,3.6487,3.6547,3.6576,3.6612,3.6663,3.6676,3.6729,3.6787,3.6781,3.685,3.6883,3.695,3.6973,3.7026,3.6999,3.7025,3.7031,3.7037,3.7043,3.6859,3.7035,3.7035,3.7035,3.7034,3.7034,0,3.6574,3.6595,3.665,3.6705,3.6752,3.6726,3.6768,3.6807,3.6869,3.6903,3.695,3.7021,3.7077,3.7095,3.7148,3.7187,3.7177,3.7201,3.7196,3.72,3.7066,3.7043,3.7208,3.7208,3.7208,3.7208,3.7208,3.7208,3.667,3.6758,3.6761,3.6862,3.6882,3.695,3.6976,3.7008,3.7035,3.7116,3.7163,3.7174,3.72,3.7256,3.7305,3.7308,3.7328,3.7356,3.7354,3.7228,3.721,3.7193,3.7172,3.7361,3.7361,3.7484,3.7485,3.7486]},{"header":{"parameterUnit":"m.s-1","parameterCategory":1,"la1":30.2991,"la2":30.254,"lo1":-89.0895,"lo2":-89.0444,"dy":0.0017,"dx":0.0017,"nx":28,"ny":28,"refTime":"2026-02-01T09:00:00:Z","depth":0,"parameterNumber":3,"parameterNumberName":"V-component_of_WINDS"},"data":[0,0,0,0,0,0,0,0,0,0,0,0,0,0,0,0,0,0,0,0,0,0,0,0,0,0,0,0,0,0,0,0,0,0,0,0,0,0,0,0,0,0,0,0,0,0,0,0,0,0,0,0,0,0,0,0,0,0,4.7222,4.7223,0,4.7336,4.7338,4.7339,4.7302,4.73,4.7298,4.7295,4.7407,4.7412,4.7417,0,0,0,0,0,0,0,0,0,0,0,0,0,4.6965,4.697,4.7222,4.7223,4.7224,4.7336,4.7338,4.7339,4.7303,4.73,4.7297,4.7294,4.7405,4.7412,4.7418,0,0,0,0,0,0,0,0,0,0,0,0,0,4.7077,4.6971,4.7221,4.722,4.7221,4.7336,4.7338,4.734,4.7303,4.73,4.7296,4.7293,4.7403,4.7411,4.7419,4.754,0,0,4.7443,4.7446,0,0,0,0,0,0,0,0,4.7071,4.7087,4.7219,4.722,4.7222,4.7301,4.7288,4.7407,4.7304,4.7272,4.7295,4.7291,4.7375,4.7385,4.7414,4.7545,4.755,4.7444,4.7448,4.7452,4.7454,0,0,0,0,0,0,0,4.7063,4.7082,4.7267,4.7221,4.7222,4.7211,4.7223,4.731,4.7342,4.7275,4.7272,4.7287,4.7375,4.7406,4.7416,4.7552,4.7443,4.745,4.7455,4.7458,4.7786,4.7789,0,0,0,0,0,0,4.7055,4.7075,4.7263,4.727,4.7136,4.7219,4.7232,4.7279,4.7341,4.7347,4.729,4.7284,4.7395,4.7407,4.742,4.7564,4.7452,4.7459,4.7463,4.7782,4.7786,4.7791,0,0,0,0,0,0,4.705,4.7072,4.7258,4.7172,4.7195,4.7227,4.728,4.7284,4.7315,4.7353,4.7357,4.7317,4.7392,4.7409,4.751,4.7568,4.7463,4.747,4.7777,4.7783,4.7789,4.7855,0,0,0,0,0,0,4.7043,4.7071,4.7119,4.7174,4.72,4.7349,4.7284,4.7288,4.733,4.7324,4.7379,4.7385,4.7391,4.7499,4.7518,4.7577,4.7476,4.7772,4.778,4.7787,4.7848,4.7862,4.7875,0,0,0,0,0,4.7034,4.7132,4.7122,4.7144,4.7261,4.7353,4.7367,4.7374,4.7335,4.7382,4.7405,4.7383,4.7559,4.751,4.7531,4.7593,4.7768,4.7777,4.7786,4.7842,4.7859,4.7875,0,0,0,0,0,0,4.7082,4.714,4.7128,4.7248,4.7296,4.7346,4.7406,4.7393,4.7452,4.7444,4.7447,4.746,4.7564,4.7588,4.7533,4.7712,4.7657,4.7671,4.7692,4.7709,4.7723,4.7714,4.7482,0,0,0,0,0,4.7107,4.7179,4.7224,4.7325,4.735,4.7374,4.7414,4.7415,4.7464,4.7484,4.7515,4.7561,4.7626,4.7669,4.7732,4.7851,4.7861,4.7904,4.7918,4.7929,4.794,4.8002,4.8021,4.782,4.782,4.782,0,0,4.7159,4.7199,4.7243,4.7336,4.7373,4.7445,4.7391,4.747,4.7522,4.7495,4.7592,4.7617,4.7669,4.7779,4.7829,4.7803,4.7998,4.794,4.7949,4.7954,4.8013,4.8032,4.8049,4.7826,4.7825,4.7824,0,0,4.7289,4.7328,4.7415,4.7454,4.7511,4.7526,4.7547,4.76,4.7615,4.7714,4.7694,4.7755,4.7868,4.7906,4.7939,4.8082,4.8063,4.8102,4.8173,4.8233,4.8249,4.8263,4.8312,4.8329,4.8114,4.8114,4.8114,0,4.7345,4.7454,4.7461,4.7542,4.7581,4.7562,4.7648,4.7685,4.7759,4.7786,4.7756,4.7896,4.793,4.8047,4.8082,4.8111,4.8133,4.8095,4.8247,4.8261,4.8274,4.832,4.8339,4.8118,4.8118,4.8117,4.8117,0,4.7519,4.7595,4.7659,4.7732,4.7779,4.7862,4.788,4.7926,4.7923,4.794,4.8039,4.8079,4.8148,4.8176,4.8173,4.8292,4.8274,4.8246,4.819,4.8297,4.8341,4.8359,4.8124,4.8123,4.8121,4.812,0,0,4.7683,4.7759,4.7782,4.7814,4.7875,4.7933,4.8014,4.8083,4.8121,4.8173,4.8239,4.8335,4.8308,4.8347,4.8347,4.8401,4.8508,4.8365,4.8366,4.8389,4.8639,4.8659,4.868,4.8496,4.85,4.8503,4.8634,0,4.7817,4.7961,4.7969,4.8099,4.8168,4.8149,4.8219,4.8263,4.8281,4.834,4.8359,4.8426,4.8388,4.841,4.8463,4.8484,4.8558,4.8475,4.8555,4.8558,4.8541,4.8703,4.8725,4.8847,4.8651,4.8654,4.8656,0,4.7992,4.805,4.8188,4.8237,4.8266,4.8329,4.8392,4.845,4.8498,4.8507,4.8549,4.8542,4.8622,4.8565,4.8674,4.8617,4.865,4.8665,4.867,4.8677,4.8612,4.8711,4.8886,4.8904,4.8684,4.8681,4.868,0,4.8095,4.8207,4.8303,4.8332,4.8393,4.8437,4.8464,4.8509,4.8549,4.8604,4.8629,4.8692,4.8725,4.8772,4.8781,4.8739,4.8889,4.8833,4.8896,4.8896,4.8927,4.8925,4.9108,4.8952,4.8952,4.8951,4.8951,0,4.8243,4.8327,4.835,4.8409,4.8502,4.8509,4.86,4.8624,4.8663,4.8724,4.8712,4.8769,4.8778,4.8836,4.8843,4.8931,4.8946,4.8954,4.8955,4.8954,4.8953,4.8975,4.8966,4.8956,4.8955,4.8954,4.8953,0,4.8373,4.8393,4.8496,4.8545,4.8559,4.8625,4.8666,4.8721,4.8738,4.8815,4.8834,4.8859,4.8927,4.8941,4.9021,4.9026,4.9129,4.9122,4.9113,4.9112,4.9173,4.9167,4.9375,4.9402,4.923,4.9232,4.9233,0,4.8465,4.8529,4.8586,4.8627,4.8656,4.8722,4.8763,4.8772,4.8815,4.8874,4.8921,4.8988,4.9042,4.9151,4.9175,4.9236,4.9229,4.9298,4.9238,4.9235,4.9227,4.9223,4.9228,4.9309,4.9311,4.9312,4.9313,0,4.8625,4.8631,4.8692,4.8757,4.8806,4.8857,4.8905,4.8938,4.8953,4.9002,4.9072,4.9114,4.9196,4.9261,4.9322,4.9347,4.9332,4.9332,4.935,4.9349,4.9341,4.9344,4.9143,4.9327,4.9326,4.9325,4.9324,4.9323,4.8737,4.8793,4.8841,4.8909,4.8946,4.8991,4.9044,4.9068,4.9128,4.9196,4.9197,4.9273,4.9317,4.9397,4.9426,4.9483,4.9461,4.9487,4.9493,4.9499,4.9504,4.9333,4.9494,4.9494,4.9494,4.9493,4.9493,0,4.8895,4.8925,4.8988,4.9055,4.9108,4.9092,4.9143,4.9187,4.9255,4.9298,4.9352,4.9431,4.9494,4.9524,4.9585,4.9626,4.962,4.9641,4.9637,4.9643,4.9521,4.9499,4.9644,4.9644,4.9644,4.9644,4.9644,4.9644,4.8983,4.9076,4.9087,4.9197,4.9226,4.9302,4.9332,4.9372,4.9407,4.9496,4.955,4.9569,4.9605,4.9669,4.9726,4.9732,4.9754,4.9779,4.9782,4.9667,4.9652,4.9637,4.9616,4.9784,4.9784,4.9898,4.9899,4.99]}]]